Activity Log for Jun, 26 2019

Back to Activity Log Search


Incident Time Nature Address
19F075002 00:01:42 30 TRAFFIC STOP E STATE BLVD & WHITE OAK AVE
19F075003 00:02:43 51 THEFT 31XX S HARRISON ST
19F075005 00:05:56 44LM 74XX HOPE DR
19F075004 00:06:51 46 DOMESTIC 40XX WARSAW ST
19F075009 00:16:01 66 MENTALLY ILL 32XX S MONROE ST
19F075006 00:18:09 30 TRAFFIC STOP 14XX NORTHLAND BLVD
19F075007 00:18:27 30 TRAFFIC STOP BLUFFTON RD & BROADWAY
19F075008 00:18:59 48 SUSPICIOUS 23XX WAWONAISSA TRL
19F075010 00:20:27 43 DISTURBANCE 49XX NORTHCREST DR
19F075011 00:24:35 30 TRAFFIC STOP GOSHEN AVE & W STATE BLVD
19F075012 00:26:16 40L LISTENING 73XX S HANNA ST
19F075013 00:37:30 40A AUDIBLE 36XX S CALHOUN ST
19F075014 00:40:07 103 UNWANTED 23XX SHERMAN BLVD
19F075015 00:52:26 44LM 28XX S ANTHONY BLVD
19F075016 00:58:31 113 SHOTS FIRED 51XX STONEHEDGE BLVD
19F075018 01:00:29 46,96 65XX BELLEFIELD DR
19F075017 01:00:40 30 TRAFFIC STOP 19XX N COLISEUM BLVD
19F075019 01:01:38 113 SHOTS FIRED 5XX MADISON ST
19F075021 01:06:41 40A AUDIBLE 62XX INNOVATION BLVD
19F075020 01:06:55 50IP BURG I/P 53XX MYANNA LN
19F075022 01:10:57 41,36 17XX HIGH ST
19F075023 01:12:39 43 DISTURBANCE 5XX E SUTTENFIELD AVE
19F075024 01:15:59 30 TRAFFIC STOP E STATE BLVD & INWOOD DR
19F075025 01:19:22 48 SUSPICIOUS 67XX PAWAWNA DR
19F075026 01:28:23 46,96 2XX E WOODLAND AVE
19F075027 01:31:45 48 SUSPICIOUS 33XX W COLISEUM BLVD
19F075028 01:33:09 44 NUISANCE 107XX N WESTLAKES DR
19F075029 01:34:21 911 HANG UP 54XX SMITH ST
19F075030 01:40:29 48 SUSPICIOUS MAPLECREST RD & PAWAWNA DR
19F075031 01:42:50 30 TRAFFIC STOP 41XX COLDWATER RD
19F075032 01:45:39 30 TRAFFIC STOP BROADWAY & HOME AVE
19F075033 01:48:36 113 SHOTS FIRED 52XX BUELL DR
19F075034 01:50:39 30 TRAFFIC STOP W PETTIT AVE & S HARRISON ST
19F075035 01:51:45 48 SUSPICIOUS 50XX S HANNA ST
19F075036 01:52:12 46,96 15XX E PAULDING RD
19F075037 01:58:52 25 PD ACCIDENT I 69 AND DUPONT RD
19F075038 02:20:42 63 CONTACT 1XX E BERRY ST
19F075039 02:24:37 102,TX THREATS 9XX HARMAR ST
19F075040 02:35:17 66 MENTALLY ILL 28XX CENTRAL DR
19F075041 02:43:35 48,36 62XX STELLHORN RD
19F075042 02:46:27 103 UNWANTED 103XX MAYSVILLE RD
19F075043 02:58:04 50IP BURG I/P 20XX FOX POINT TRL
19F075044 03:05:47 40P PANIC ALARM 3XX W DARROW AVE
19F075050 03:08:21 14 WARRANT 12XX W PACKARD AVE
19F075045 03:09:55 30 TRAFFIC STOP GOSHEN RD & W COLISEUM BLVD
19F075046 03:11:54 40A AUDIBLE 8XX W WASHINGTON CENTER RD
19F075047 03:13:07 55 FIGHT 4XX W JEFFERSON BLVD
19F075048 03:17:56 41 MAN DOWN COLUMBIA AVE & ONEIDA ST
19F075049 03:19:27 65T SUICIDE THR 62XX ILLINOIS RD
19F075051 03:31:00 63 CONTACT 4XX W BRACKENRIDGE ST
19F075053 03:44:04 46 DOMESTIC 29XX SCHELE AVE
19F075052 03:44:20 25 PD ACCIDENT 15XX TAYLOR ST
19F075054 03:53:35 46 DOMESTIC 26XX DELLVIEW DR
19F075055 03:58:31 25HS HIT SKIP S CLINTON ST & E WALLACE ST
19F075056 04:00:02 911 HANG UP 32XX S MONROE ST
19F075057 04:31:59 43 DISTURBANCE 64XX HILLSIDE OAKS DR
19F075058 04:37:21 48,35 35XX WEBSTER ST
19F075060 04:42:20 33,34 DECATUR RD & GABLE RD
19F075059 04:43:24 25 PD ACCIDENT 37XX WELLS ST
19F075061 04:47:11 25 PD ACCIDENT 33XX E DUPONT RD
19F075062 04:55:00 14 WARRANT W COLISEUM BLVD & VIRGINIA AVE
19F075063 05:08:46 30 TRAFFIC STOP 305XX I 69 NB
19F075064 05:09:34 40A AUDIBLE 3XX W JEFFERSON BLVD
19F075065 05:10:57 51 THEFT 57XX ST JOE RD
19F075066 05:19:18 46,96 2XX E PETTIT AVE
19F075067 05:23:05 96 BATTERY 14XX RECKEWEG RD
19F075068 05:25:07 1 MEET E WALLACE ST & S CLINTON ST
19F075070 05:31:45 66 MENTALLY ILL 1XX E DEWALD ST
19F075069 05:32:52 30 TRAFFIC STOP W JEFFERSON BLVD & FULTON ST
19F075072 05:38:10 48,35 JESSIE AVE & MARGARET AVE
19F075073 05:57:31 40A AUDIBLE 46XX WERLING DR
19F075074 06:04:27 14S SERVING WAR 44XX COVENTRY PKWY
19F075075 06:04:41 14S SERVING WAR 19XX BLACK BEAR DR
19F075076 06:05:29 14S SERVING WAR 12XX HUESTIS AVE
19F075080 06:10:21 14S SERVING WAR 26XX NORTHGATE BLVD
19F075077 06:15:12 14S SERVING WAR 54XX MAURANE DR
19F075081 06:17:37 14S SERVING WAR 21XX NORTHHIGHLANDS BLVD
19F075078 06:20:07 14S SERVING WAR 27XX WESTVIEW AVE
19F075079 06:22:13 25HS HIT SKIP AVONDALE DR & SENATE AVE
19F075083 06:31:31 48,36 34XX LOWER HUNTINGTON RD
19F075082 06:31:33 48 SUSPICIOUS BRIAR FENCE LN & BRECONSHIRE DR
19F075084 06:40:34 14S SERVING WAR 27XX BROOKLYN AVE
19F075085 06:42:36 30 TRAFFIC STOP AIRPORT EXPRESSWAY & LOWER HUNTING
19F075086 06:46:50 14S SERVING WAR 37XX GRAYSTON AVE
19F075087 06:47:55 51,35 57XX WILKIE DR
19F075088 06:49:54 1 MEET ILLINOIS RD & MAGNAVOX WAY
19F075095 06:54:36 14 WARRANT 30XX PENNSYLVANIA ST
19F075089 06:56:04 30 TRAFFIC STOP 3XX E PAULDING RD
19F075090 07:02:24 14S SERVING WAR 44XX BOWSER AVE
19F075091 07:08:36 25 PD ACCIDENT S LAFAYETTE ST & S ANTHONY BLVD
19F075092 07:16:42 14S SERVING WAR 28XX S CLINTON ST
19F075093 07:22:30 48 SUSPICIOUS 1XX E SUPERIOR ST
19F075094 07:30:07 14S SERVING WAR 57XX BLUFFTON RD
19F075096 07:38:32 25 PD ACCIDENT LIMA RD & W WALLEN RD
19F075097 07:42:07 14S SERVING WAR 16XX BEACH ST
19F075098 07:46:27 14S SERVING WAR 28XX S CLINTON ST
19F075099 07:46:41 46,96 18XX W MAIN ST
19F075104 07:47:55 14 WARRANT 23XX NUTTMAN AVE
19F075100 07:48:44 41,36 W COLISEUM BLVD & GOSHEN RD
19F075101 07:49:21 23,35 VAND VEH 54XX VANCE AVE
19F075102 07:49:35 62 PARTY ARMED EWING ST & W SUPERIOR ST
19F075103 07:53:24 14S SERVING WAR 72XX WOODLYNN DR
19F075118 07:53:56 50,ATTEMPTED 20XX NUTTMAN AVE
19F075105 07:57:46 17 MOTOR CHECK 58XX INDUSTRIAL RD
19F075284 07:59:34 14S SERVING WAR 51XX STONEHEDGE BLVD
19F075107 07:59:47 25 PD ACCIDENT 58XX BLUFFTON RD
19F075108 08:02:49 14S SERVING WAR 5XX HOME AVE
19F075109 08:18:44 25 PD ACCIDENT 48XX E WASHINGTON BLVD
19F075112 08:20:22 48 SUSPICIOUS XX E MAIN ST
19F075110 08:23:50 15,84 ASS URGEN W MAIN ST & EDGERTON AVE
19F075111 08:24:45 46 DOMESTIC 47XX SOUTH PARK DR
19F075114 08:30:01 911 HANG UP 11XX W COLISEUM BLVD
19F075117 08:30:58 46,96 6XX WAGNER ST
19F075113 08:31:50 48,35 38XX N ANTHONY BLVD
19F075115 08:33:35 40A AUDIBLE 42XX W WASHINGTON CENTER RD
19F075116 08:35:14 103 UNWANTED 29XX GOSHEN RD
19F075119 08:38:34 46 DOMESTIC 29XX KNODE CT
19F075120 08:47:37 48 SUSPICIOUS 8XX VILLA PARK CT
19F075121 08:57:43 911 HANG UP 55XX W US 30
19F075122 08:58:37 1 MEET FOX AVE & BELLE AVE
19F075124 09:03:33 11C CAGE CAR 2XX E MAIN ST
19F075125 09:03:35 67 INDECENT 51XX WINCHESTER RD
19F075126 09:06:33 50 BURGLARY 78XX TENDALL CT
19F075127 09:07:39 22I JUV INVEST 63XX BRANDONWOOD LN
19F075129 09:10:34 51 THEFT 4XX PERRY AVE
19F075128 09:11:02 23,35 VAND VEH 25XX CAMBRIDGE BLVD
19F075130 09:16:49 30 TRAFFIC STOP S LAFAYETTE ST & E PONTIAC ST
19F075132 09:17:51 48,35 FILLMORE ST & COVINGTON RD
19F075131 09:19:45 63 CONTACT ROBINWOOD DR & OXFORD ST
19F075133 09:20:26 911 HANG UP 47XX SOUTH PARK DR
19F075135 09:21:46 25,86 E WALLACE ST & S LAFAYETTE ST
19F075134 09:23:26 66V MENTAL VIOL 28XX OAKWOOD DR
19F075136 09:27:01 22I JUV INVEST E WAYNE ST & S CALHOUN ST
19F075137 09:28:13 34 TRAFF HAZARD WELLS ST & W FERNHILL AVE
19F075138 09:28:59 40A AUDIBLE 27XX CHICHESTER LN
19F075139 09:38:33 103 UNWANTED 4XX W WASHINGTON BLVD
19F075140 09:41:06 17 MOTOR CHECK 44XX NEW HAVEN AVE
19F075141 09:50:36 17 MOTOR CHECK 53XX KESWICK LN
19F075142 09:54:49 27 RECKLESS DRI ILLINOIS RD & GETZ RD
19F075144 10:06:11 96 BATTERY 36XX TRACE CIR
19F075143 10:06:57 51 THEFT 26XX MAULDIN DR
19F075145 10:09:05 25 PD ACCIDENT 16XX SPRING ST
19F075146 10:14:36 51 THEFT 48XX BADE DR
19F075147 10:15:37 25 PD ACCIDENT N CLINTON ST & E FOURTH ST
19F075149 10:19:24 43 DISTURBANCE 28XX DUPONT COMMERCE CT
19F075151 10:20:59 47 REMOVE ITEMS 23XX NUTTMAN AVE
19F075150 10:21:55 23,35 VAND VEH 3XX E WASHINGTON BLVD
19F075152 10:25:47 41,36 WINCHESTER RD & AIRPORT EXPRESSWAY
19F075155 10:27:46 66 MENTALLY ILL 9XX RIDGEWOOD DR
19F075154 10:27:58 46,96 4XX W COX DR
19F075156 10:28:41 23 VANDALISM 20XX W WASHINGTON CENTER RD
19F075153 10:28:45 66 72 HOUR 55XX SENNA DR
19F075158 10:34:09 40A AUDIBLE 28XX ELMDALE DR
19F075157 10:34:26 48 SUSPICIOUS S BARR ST & E BERRY ST
19F075159 10:37:22 30 TRAFFIC STOP E COLISEUM BLVD & CRESCENT AVE
19F075167 10:42:49 33J LOCKED OUT 100XX LIMA RD
19F075160 10:46:48 40A AUDIBLE 52XX KESWICK LN
19F075161 10:47:37 25HS HIT SKIP 35XX CRESCENT AVE
19F075162 10:50:12 911 HANG UP 3XX E WASHINGTON CENTER RD
19F075164 10:52:28 17 MOTOR CHECK XX E MAIN ST
19F075165 10:55:18 48,36 19XX N COLISEUM BLVD
19F075166 10:57:17 103 UNWANTED 57XX ALTA VISTA CT
19F075168 11:00:54 63 CONTACT 103XX MAYSVILLE RD
19F075172 11:05:41 34 TRAFF HAZARD 309XX I 69 SB
19F075171 11:06:43 48 SUSPICIOUS 17XX E COOK RD
19F075169 11:07:56 103 UNWANTED 6XX W SUPERIOR ST
19F075170 11:09:09 25 PD ACCIDENT E WASHINGTON BLVD & S ANTHONY BLVD
19F075176 11:10:08 50 BURGLARY 50XX OLD MAYSVILLE RD
19F075175 11:13:49 25 PD ACCIDENT N CLINTON ST & E STATE BLVD
19F075173 11:15:10 25 PD ACCIDENT 60XX INNOVATION BLVD
19F075174 11:16:11 25 PD ACCIDENT E STATE BLVD & BEACON ST
19F075177 11:24:50 15 ASSIST S LAFAYETTE ST & DALMAN AVE
19F075178 11:25:16 25 PD ACCIDENT E LEWIS ST & S CLINTON ST
19F075180 11:35:27 911 HANG UP 30XX ABBOTT ST
19F075179 11:36:14 30 TRAFFIC STOP 313XX I 69 NB
19F075181 11:40:19 30 TRAFFIC STOP S ANTHONY BLVD & ECKART ST
19F075208 11:41:12 51 THEFT 3XX E WASHINGTON BLVD
19F075186 11:47:00 47 REMOVE ITEMS 12XX GREENE ST
19F075182 11:49:21 108 FOLLOWUP 11XX RIVERMET AVE
19F075183 11:50:47 911 HANG UP 4XX BUCHANAN ST
19F075184 11:52:40 66 MENTALLY ILL 28XX RIDGEWAY DR
19F075185 11:55:53 25 PD ACCIDENT GOSHEN RD & W COLISEUM BLVD
19F075187 12:01:20 65T SUICIDE THR 49XX WEBSTER ST
19F075188 12:02:11 25 PD ACCIDENT S LAFAYETTE ST & E WALLACE ST
19F075189 12:04:17 25 PD ACCIDENT W BAKER ST & WEBSTER ST
19F075190 12:04:20 103 UNWANTED 22XX SHERMAN BLVD
19F075193 12:06:32 25 PD ACCIDENT 3XX E WAYNE ST
19F075192 12:09:33 66 MENTALLY ILL 4XX ECKART ST
19F075191 12:10:58 33,34 GOSHEN RD & W COLISEUM BLVD
19F075194 12:13:08 25 PD ACCIDENT E PONTIAC ST & S CLINTON ST
19F075195 12:16:09 63 CONTACT 36XX SUMMERSWORTH RUN
19F075196 12:19:21 25 PD ACCIDENT E STATE BLVD & RANDALLIA DR
19F075199 12:25:34 37 PARKING VIOL 41XX LILLIE ST
19F075202 12:28:17 28 DUI 62XX STELLHORN RD
19F075198 12:28:43 11C CAGE CAR 42XX W JEFFERSON BLVD
19F075197 12:30:25 48,35 89XX ABOITE CENTER RD
19F075205 12:38:48 1 MEET 118XX COVINGTON RD
19F075201 12:39:10 25 PD ACCIDENT 13XX EWING ST
19F075200 12:39:13 23,35 VAND VEH 84XX LAKESIDE DR
19F075207 12:41:31 102 THREATS 47XX HOLTON AVE
19F075203 12:41:51 43 DISTURBANCE 19XX PHENIE ST
19F075204 12:43:03 43 DISTURBANCE 78XX TENDALL CT
19F075206 12:45:42 108 FOLLOWUP 14XX REED RD
19F075209 12:48:53 48 SUSPICIOUS 50XX RIVIERA CT
19F075210 12:50:28 103 UNWANTED 1XX E PETTIT AVE
19F075211 12:55:14 30 TRAFFIC STOP GRANDEUR DR & E STATE BLVD
19F075212 12:57:04 25HS HIT SKIP S CALHOUN ST & W WASHINGTON BLVD
19F075213 13:01:06 25 PD ACCIDENT EWING ST & W JEFFERSON BLVD
19F075214 13:04:53 24 MISSING PERS 9XX LINCOLN AVE
19F075223 13:10:52 63 CONTACT 29XX WESTBROOK DR
19F075215 13:12:53 43 DISTURBANCE 4XX W DEWALD ST
19F075216 13:14:28 40A AUDIBLE 34XX MCKINNIE AVE
19F075219 13:23:53 34 TRAFF HAZARD 6XX COLUMBIA AVE
19F075217 13:24:47 40P PANIC ALARM 3XX W DARROW AVE
19F075218 13:29:15 17 MOTOR CHECK 56XX WHEELOCK RD
19F075238 13:30:28 43 DISTURBANCE 55XX NORTHCREST DR
19F075221 13:30:47 25HS HIT SKIP W JEFFERSON BLVD & FAIRFIELD AVE
19F075235 13:31:35 50 BURGLARY 2XX E PETTIT AVE
19F075220 13:31:43 48 SUSPICIOUS 27XX LYNN AVE
19F075224 13:33:05 99 NARCOTICS 43XX REED ST
19F075261 13:34:08 46 DOMESTIC 26XX FOX AVE
19F075222 13:34:33 25 PD ACCIDENT E WASHINGTON CENTER RD & DARTMOUTH
19F075225 13:36:18 25 PD ACCIDENT 5XX W JEFFERSON BLVD
19F075251 13:36:24 EMS 121XX W WASHINGTON CENTER RD
19F075226 13:37:31 E WAYNE ST & S CALHOUN ST
19F075227 13:37:41 103 UNWANTED 10XX FRANKLIN AVE
19F075229 13:42:43 15,85 ASST AT O 48XX SPATZ AVE
19F075230 13:45:35 HARASSMENT 21XX EDEN ST
19F075236 13:52:48 33,34 15XX GOSHEN AVE
19F075237 13:54:15 16,97 19XX GETZ RD
19F075233 13:54:18 25HS HIT SKIP 11XX SWINNEY AVE
19F075232 13:54:19 51,35 27XX N ANTHONY BLVD
19F075234 13:59:14 33 DISABLED VEH 315XX I 69 NB
19F075239 14:03:02 48 SUSPICIOUS 26XX PRISCILLA LN
19F075248 14:10:21 17 MOTOR CHECK 36XX HIAWATHA BLVD
19F075240 14:13:03 24 MISSING PERS 18XX EDSALL AVE
19F075242 14:13:57 40A AUDIBLE 41XX HOLTON AVE
19F075241 14:14:13 50 BURGLARY 47XX NORTHCREST DR
19F075243 14:21:41 41,36 3XX FRENCH AVE
19F075244 14:22:53 33,34 E WASHINGTON BLVD & S LAFAYETTE ST
19F075245 14:24:17 43 DISTURBANCE 55XX S ANTHONY BLVD
19F075246 14:26:36 25 PD ACCIDENT 60XX STELLHORN RD
19F075247 14:27:55 25 PD ACCIDENT WHEELOCK RD & ST JOE CENTER RD
19F075249 14:34:02 57 STRONG ARM 41XX S LAFAYETTE ST
19F075252 14:40:23 48 SUSPICIOUS 27XX LYNN AVE
19F075253 14:42:09 63 CONTACT 9XX DEARBORN ST
19F075257 14:43:12 43 DISTURBANCE 23XX S HANNA ST
19F075255 14:45:17 43 DISTURBANCE 13XX SPRING ST
19F075254 14:45:40 30 TRAFFIC STOP 5XX LEXINGTON AVE
19F075256 14:46:09 33,34 REED RD & E STATE BLVD
19F075260 14:47:35 33,34 BROADWAY & W MAIN ST
19F075258 14:51:21 70 FIRE 2XX E HOOVER DR
19F075259 14:53:31 33J LOCKED OUT 49XX PLAZA DR
19F075263 15:01:29 67 INDECENT 40XX S HANNA ST
19F075262 15:02:56 HARASSMENT 15XX FIELDSTONE DR
19F075264 15:07:10 30 TRAFFIC STOP E PAULDING RD & DECATUR RD
19F075265 15:07:28 40A AUDIBLE 20XX IDA AVE
19F075266 15:09:17 66 MENTALLY ILL 19XX CAREW ST
19F075267 15:11:42 111D DOG 53XX COLDWATER RD
19F075271 15:14:44 66 MENTALLY ILL 52XX IONE DR
19F075268 15:15:05 103 UNWANTED 1XX W BAKER ST
19F075270 15:15:43 46 DOMESTIC 57XX THORNBRIAR LN
19F075269 15:16:01 26 PI ACCIDENT 311XX I 69 NB
19F075272 15:19:56 25 PD ACCIDENT 23XX SHADY BROOK DR
19F075291 15:20:23 63 CONTACT 67XX MONARCH DR
19F075273 15:20:59 25HS HIT SKIP ILLINOIS RD & GLENCARIN BLVD
19F075274 15:21:17 16,97 101XX LIMA RD
19F075290 15:21:42 63 CONTACT 29XX KENTUCKY AVE
19F075275 15:24:01 25 PD ACCIDENT 311XX I 69 NB
19F075278 15:28:12 46 DOMESTIC 9XX TENNESSEE AVE
19F075279 15:28:26 51JO 61XX N CLINTON ST
19F075286 15:29:43 33,34 E STATE BLVD & REED RD
19F075277 15:30:06 51,35 S ANTHONY BLVD & E RUDISILL BLVD
19F075283 15:30:48 25 PD ACCIDENT 314XX I 69 NB
19F075281 15:31:00 911 HANG UP 7XX GROWTH AVE
19F075280 15:32:23 30 TRAFFIC STOP FREDERICK ST & HERMAN ST
19F075282 15:32:51 45 NEIGHBORHOOD 29XX EUCLID AVE
19F075288 15:38:24 96JO 19XX GREENTREE CT
19F075302 15:38:43 47 REMOVE ITEMS 2XX E BERRY ST
19F075289 15:39:23 48 SUSPICIOUS 45XX BLK GAYWOOD DR
19F075285 15:40:34 30 TRAFFIC STOP S ANTHONY BLVD & E PAULDING RD
19F075287 15:40:51 14S SERVING WAR 26XX CAMBRIDGE BLVD
19F075299 15:45:51 911 HANG UP 6XX THIRD ST
19F075304 15:46:13 48 SUSPICIOUS 39XX OLD MILL RD
19F075292 15:46:16 15,85 ASST AT O 5XX SPRING ST
19F075293 15:47:40 66 72 HOUR 79XX W JEFFERSON BLVD
19F075295 15:50:14 51 THEFT 6XX WALLEN HILLS DR
19F075300 15:50:33 43 DISTURBANCE 58XX ALTA VISTA CT
19F075296 15:50:51 46 DOMESTIC 45XX GAYWOOD DR
19F075298 15:51:36 20 PROBLEM UNK 1XX W BAKER ST
19F075297 15:51:56 1 MEET 19XX GETZ RD
19F075301 15:53:41 15 ASSIST 12XX ELM ST
19F075303 15:57:23 46,96 22XX HOBSON RD
19F075307 15:59:57 44LM 9XX E LEWIS ST
19F075305 16:01:16 25HS HIT SKIP 29XX W WASHINGTON CENTER RD
19F075306 16:04:09 43 DISTURBANCE 2XX E RUDISILL BLVD
19F075309 16:08:08 41 MAN DOWN S CALHOUN ST & E BRACKENRIDGE ST
19F075308 16:08:09 30 TRAFFIC STOP COLDWATER RD & E TILL RD
19F075310 16:09:46 25 PD ACCIDENT 65XX COVINGTON RD
19F075312 16:11:10 40A AUDIBLE 57XX S ANTHONY BLVD
19F075311 16:11:32 51 THEFT 9XX WELLS ST
19F075314 16:12:09 40 ALARM 84XX HARBOR PINES PL
19F075313 16:14:04 48 SUSPICIOUS WELLS ST & THIRD ST
19F075328 16:17:34 50 BURGLARY 13XX E RUDISILL BLVD
19F075315 16:22:28 46 DOMESTIC 35XX ABBOTT ST
19F075316 16:22:31 25 PD ACCIDENT 9XX S LAFAYETTE ST
19F075318 16:26:22 102,TX THREATS 15XX SPRING ST
19F075317 16:26:56 96 BATTERY 1XX DUNBAR LN
19F075361 16:27:12 51 THEFT 27XX W COLISEUM BLVD
19F075329 16:28:08 108 FOLLOWUP 84XX LAKESIDE DR
19F075319 16:28:25 25 PD ACCIDENT 311XX i 69 sb
19F075321 16:31:54 40 ALARM 54XX KEYSTONE DR
19F075320 16:33:45 43 DISTURBANCE S CALHOUN ST & E SUPERIOR ST
19F075322 16:35:39 17 MOTOR CHECK 66XX KLINE ST
19F075323 16:36:23 48,36 34XX EASTWOOD DR
19F075325 16:38:35 66 MENTALLY ILL 32XX S MONROE ST
19F075324 16:40:31 43 DISTURBANCE 9XX HOME AVE
19F075338 16:41:04 17R REREAD 24XX CASS ST
19F075327 16:45:11 46 DOMESTIC 21XX N GLENDALE DR
19F075326 16:45:49 51 THEFT 13XX SPRING ST
19F075330 16:47:40 25HS HIT SKIP DIEBOLD RD & N CLINTON ST
19F075332 16:48:54 63 CONTACT 41XX N CLINTON ST
19F075333 16:51:32 46 DOMESTIC 3XX E WOODLAND AVE
19F075331 16:51:42 25 PD ACCIDENT 53XX COLDWATER RD
19F075341 16:54:30 46 DOMESTIC XX E MAIN ST
19F075334 16:55:00 25 PD ACCIDENT W WASHINGTON BLVD & FAIRFIELD AVE
19F075335 16:55:32 66V MENTAL VIOL 41XX E SADDLE DR
19F075339 16:56:05 25 PD ACCIDENT 43XX E WASHINGTON BLVD
19F075336 16:56:20 25 PD ACCIDENT E WASHINGTON BLVD & S LAFAYETTE ST
19F075337 16:56:44 46 DOMESTIC 6XX FIFTH ST
19F075342 16:58:46 46,96 57XX OAK POINTE DR
19F075340 16:59:16 25 PD ACCIDENT W WASHINGTON CENTER RD & HATFIELD
19F075343 17:00:00 48 SUSPICIOUS 27XX WAYNEDALE BLVD
19F075344 17:03:16 25 PD ACCIDENT 38XX COLDWATER RD
19F075348 17:08:31 37 PARKING VIOL 23XX REED ST
19F075345 17:11:11 38 LOST/STOLEN 53XX COLDWATER RD
19F075355 17:12:06 63 CONTACT 53XX CLOVERBROOK DR
19F075346 17:14:32 43 DISTURBANCE 62XX LAKE AVE
19F075347 17:17:26 51JO 34XX PORTAGE BLVD
19F075349 17:20:33 51 THEFT 76XX WELSHIRE BLVD
19F075350 17:21:01 63 CONTACT POINTE INVERNESS WAY & S HADLEY RD
19F075352 17:26:09 43 DISTURBANCE 17XX ST MARYS AVE
19F075354 17:26:27 44LM 31XX S MONROE ST
19F075359 17:29:39 63 CONTACT 7XX LAWTON PL
19F075351 17:30:17 26 PI ACCIDENT OLD MILL RD & SHERIDAN CT
19F075353 17:38:36 16,97 39XX HESSEN CASSEL RD
19F075356 17:39:33 43 DISTURBANCE 5XX MADISON ST
19F075357 17:42:00 51,35 6XX E TILLMAN RD
19F075358 17:44:14 43 DISTURBANCE 19XX ST MARYS AVE
19F075364 17:45:14 24 MISSING PERS 7XX W COLISEUM BLVD
19F075360 17:48:26 63 CONTACT S ANTHONY BLVD & S LAFAYETTE ST
19F075362 17:50:21 911 HANG UP 32XX S MONROE ST
19F075366 17:55:00 46 DOMESTIC 9XX WOODVIEW BLVD
19F075363 17:58:10 30 TRAFFIC STOP ARDMORE AVE & TAYLOR ST
19F075371 18:00:18 33J LOCKED OUT 57XX COVENTRY LN
19F075365 18:02:31 37 PARKING VIOL 14XX TAYLOR ST
19F075388 18:04:16 14 WARRANT 17XX W FOURTH ST
19F075367 18:05:12 80 CIVIL INVEST XX E MAIN ST
19F075368 18:08:34 40A AUDIBLE 55XX COLDWATER RD
19F075369 18:10:44 48 SUSPICIOUS 90XX W JEFFERSON BLVD
19F075373 18:13:32 51JO 25XX S COLISEUM BLVD
19F075372 18:13:34 43 DISTURBANCE 32XX WELLS ST
19F075374 18:17:22 51 THEFT 50XX MADIERA DR
19F075382 18:18:41 44LM 32XX S MONROE ST
19F075377 18:18:44 25 PD ACCIDENT 17XX FRANKLIN AVE
19F075375 18:19:59 63Z ZACH CHECK 22XX DUNKELBERG RD
19F075376 18:20:17 103 UNWANTED 83XX BRIDGEWAY BLVD
19F075386 18:20:30 108 FOLLOWUP 7XX E TILLMAN RD
19F075378 18:26:27 25HS HIT SKIP E STATE BLVD & MAYSVILLE RD
19F075380 18:30:13 22I JUV INVEST 22XX S HANNA ST
19F075399 18:30:21 39U UNAUTHORIZE 27XX QUEEN ST
19F075379 18:31:58 30 TRAFFIC STOP NORTHRIDGE RD & GETZ RD
19F075381 18:36:11 26 PI ACCIDENT HOSLER RD & VIBERG RD
19F075383 18:42:00 41,36 CONGRESS AVE & S LAFAYETTE ST
19F075384 18:44:06 30 TRAFFIC STOP FAIRFIELD AVE & ROSE LN
19F075385 18:45:03 103 UNWANTED 7XX W WASHINGTON BLVD
19F075389 18:47:29 43 DISTURBANCE 28XX BROADRIPPLE DR
19F075387 18:47:44 34 TRAFF HAZARD E STATE BLVD & LAHMEYER RD
19F075390 18:54:16 59 CUTTING/STAB 47XX LILLIE ST
19F075391 18:55:57 30 TRAFFIC STOP W DEWALD ST & FOX AVE
19F075392 18:57:01 30 TRAFFIC STOP S ANTHONY BLVD & E PAULDING RD
19F075397 19:00:03 63 CONTACT 35XX MCKINNIE AVE
19F075393 19:00:53 46 DOMESTIC 3XX E WOODLAND AVE
19F075394 19:02:19 30 TRAFFIC STOP ASHLAND DR & LAMONT DR
19F075396 19:02:53 46 DOMESTIC 9XX TENNESSEE AVE
19F075395 19:03:09 23,35 VAND VEH 9XX SAVILLA AVE
19F075425 19:04:02 47 REMOVE ITEMS 2XX E CONCORD LN
19F075398 19:10:01 43 DISTURBANCE 21XX EDEN ST
19F075400 19:10:51 43 DISTURBANCE 17XX W FOURTH ST
19F075401 19:12:12 1 MEET XX E MAIN ST
19F075402 19:13:15 911 HANG UP 52XX IONE DR
19F075409 19:14:07 48 SUSPICIOUS 42XX N CLINTON ST
19F075403 19:14:48 43 DISTURBANCE 71XX LEWIS RD
19F075404 19:15:15 48 SUSPICIOUS 62XX LIMA RD
19F075405 19:17:47 46 DOMESTIC 26XX CLE ELUM DR
19F075406 19:19:04 EMS 54XX WOODLEA AVE
19F075407 19:22:36 30 TRAFFIC STOP GUTHRIE ST & MICHIGAN AVE
19F075408 19:28:09 44LM 51XX JOAN DR
19F075410 19:34:51 63 CONTACT 87XX W JEFFERSON BLVD
19F075459 19:36:47 44FW 11XX VENTURA LN
19F075411 19:40:28 46,96 18XX THOMPSON AVE
19F075412 19:44:55 36 OCCUPIED VEH HIGHVIEW DR & W WASHINGTON CENTER
19F075413 19:47:07 25HS HIT SKIP E STATE BLVD & LAHMEYER RD
19F075414 19:50:57 48,36 23XX LILLIE ST
19F075415 19:51:16 48,36 24XX N COLISEUM BLVD
19F075416 19:54:22 45 NEIGHBORHOOD 62XX CATBIRD AVE
19F075417 19:56:23 27 RECKLESS DRI LIMA RD & W WASHINGTON CENTER RD
19F075418 20:01:32 48,36 26XX DODGE AVE
19F075424 20:02:16 102 THREATS 35XX NEW HAVEN AVE
19F075419 20:03:27 41 MAN DOWN S CALHOUN ST & W JEFFERSON BLVD
19F075421 20:03:49 63 CONTACT BROADWAY & LINCOLN AVE
19F075420 20:03:51 46,96 28XX MILLBROOK DR
19F075422 20:07:20 43 DISTURBANCE 3XX E WOODLAND AVE
19F075423 20:08:19 30 TRAFFIC STOP HUFFMAN ST & ANDREW ST
19F075426 20:10:22 46,96 55XX N CLINTON ST
19F075427 20:13:41 45 NEIGHBORHOOD 52XX WINTER ST
19F075428 20:15:42 129 79XX DECATUR RD
19F075429 20:16:02 129 79XX DECATUR RD
19F075435 20:16:49 1 MEET 15XX E PAULDING RD
19F075432 20:18:04 911 HANG UP 18XX FOX POINT TRL
19F075430 20:18:35 48 SUSPICIOUS 26XX S ANTHONY BLVD
19F075431 20:20:49 43 DISTURBANCE 17XX CONNAUGHT CT
19F075433 20:24:47 48 SUSPICIOUS 15XX GOSHEN AVE
19F075434 20:25:21 65A SUICIDE ATT 13XX W WASHINGTON BLVD
19F075442 20:33:15 37 PARKING VIOL 5XX E CREIGHTON AVE
19F075444 20:33:18 22RN RUNAWAY 43XX REED ST
19F075437 20:38:40 911 HANG UP BOWSER AVE & E PONTIAC ST
19F075436 20:38:49 48 SUSPICIOUS ST MARYS AVE & W STATE BLVD
19F075439 20:39:46 39 STOLEN VEHIC 4XX E STATE BLVD
19F075438 20:40:10 51,35 46XX WOODSDALE LN
19F075440 20:40:11 51 THEFT 7XX SNOWFALL RD
19F075441 20:48:40 55 FIGHT 9XX E WASHINGTON BLVD
19F075443 20:52:13 51JO 18XX BLUFFTON RD
19F075445 20:53:02 45 NEIGHBORHOOD 17XX ST MARYS AVE
19F075446 20:54:56 44FW 77XX TENDALL CT
19F075447 20:56:17 37 PARKING VIOL 18XX LATHROP DR
19F075448 21:03:49 46 DOMESTIC SMITH ST & E FAIRFAX AVE
19F075449 21:10:45 46 DOMESTIC 31XX OLIVER ST
19F075450 21:16:31 14S SERVING WAR 48XX OLD HICKORY LN
19F075451 21:27:06 22RN RUNAWAY 18XX BEACON ST
19F075452 21:31:25 129 62XX MAYFAIR RD
19F075478 21:31:46 22I JUV INVEST 10XX LEXINGTON AVE
19F075454 21:32:32 51JO 64XX BLUFFTON RD
19F075486 21:33:50 39U UNAUTHORIZE 27XX CHANDLER DR
19F075456 21:33:59 43 DISTURBANCE 13XX WARREN ST
19F075455 21:34:03 48 SUSPICIOUS 6XX HUFFMAN ST
19F075457 21:34:19 44LP 45XX SPATZ AVE
19F075463 21:35:50 44 NUISANCE 18XX NORTHBURY CT
19F075458 21:36:11 41,36 103XX MAYSVILLE RD
19F075460 21:38:53 46 DOMESTIC 72XX BEECHHURST CT
19F075462 21:47:41 63 CONTACT 27XX CANTERBURY BLVD
19F075461 21:49:06 33,34 INDIANAPOLIS RD & SMITH RD
19F075470 21:54:52 63 CONTACT 45XX S LAFAYETTE ST
19F075472 21:55:14 22I JUV INVEST 110XX W ROSEWOOD CIR
19F075468 21:55:22 48,36 59XX OAKMONT RD
19F075471 21:56:41 43 DISTURBANCE BROOKLYN AVE & COVINGTON RD
19F075464 21:59:50 30 TRAFFIC STOP ASHLEY AVE & LIMA RD
19F075475 22:00:08 43 DISTURBANCE 58XX KIMBERLEY RD
19F075465 22:00:12 30 TRAFFIC STOP ROXBURY CT & FAIRFIELD AVE
19F075466 22:00:22 113 SHOTS FIRED 6XX W JEFFERSON BLVD
19F075467 22:00:26 42 INTOX PERSON HIGHVIEW DR & W WASHINGTON CENTER
19F075494 22:01:42 911 HANG UP 20XX APACHE CT
19F075469 22:02:38 40A AUDIBLE 3XX E COLISEUM BLVD
19F075493 22:03:32 44LM 1XX W EL DORADO TRL
19F075473 22:05:58 129 29XX ELMDALE DR
19F075488 22:06:03 46 DOMESTIC 24XX CARLTON CT
19F075474 22:06:13 30 TRAFFIC STOP LIMA RD & W WALLEN RD
19F075476 22:06:32 48 SUSPICIOUS 6XX E LEWIS ST
19F075477 22:07:43 911 HANG UP 25XX S HANNA ST
19F075484 22:08:24 63 CONTACT 47XX COLDWATER RD
19F075480 22:08:35 22I JUV INVEST 75XX SOUTHTOWN XING
19F075479 22:09:00 96JO 32XX REED ST
19F075483 22:10:26 43 DISTURBANCE 15XX W DUPONT RD
19F075482 22:10:59 45 NEIGHBORHOOD 67XX MALLARD COVE TER
19F075481 22:12:02 30 TRAFFIC STOP N CLINTON ST & WAKEFIELD AVE
19F075485 22:15:23 66 MENTALLY ILL 61XX LOMBARD PL
19F075490 22:20:00 43 DISTURBANCE 31XX CENTRAL DR
19F075487 22:20:14 1 MEET XX E MAIN ST
19F075489 22:21:22 30 TRAFFIC STOP W COLISEUM BLVD & SPEEDWAY DR
19F075496 22:23:02 44FW SHERMAN BLVD & ELMER AVE
19F075492 22:23:08 48 SUSPICIOUS 6XX W JEFFERSON BLVD
19F075491 22:24:40 30 TRAFFIC STOP COLDWATER RD & E FERNHILL AVE
19F075495 22:27:06 22RC RECOVERY LAKE AVE & BEACON ST
19F075497 22:41:55 30 TRAFFIC STOP PLAZA DR & WERLING DR
19F075498 22:49:25 48,36 10XX DAWNAN DR
19F075499 22:51:17 46 DOMESTIC 43XX LILLIE ST
19F075503 22:53:26 22RN RUNAWAY 35XX EUCLID AVE
19F075500 22:54:02 48 SUSPICIOUS 44XX SMITH ST
19F075501 22:55:56 30 TRAFFIC STOP 56XX WOODSHIRE DR
19F075504 22:58:02 911 HANG UP 79XX SERENITY DR
19F075502 23:00:33 44FW 27XX EUCLID AVE
19F075505 23:03:58 30 TRAFFIC STOP ROTHMAN RD & MAPLECREST RD
19F075506 23:04:04 103 UNWANTED 35XX W COLISEUM BLVD
19F075507 23:06:10 22I JUV INVEST 23XX EBY AVE
19F075508 23:08:29 48 SUSPICIOUS 42XX S CALHOUN ST
19F075509 23:10:28 129 54XX OLD MILL RD
19F075516 23:10:41 63 CONTACT 22XX CASS ST
19F075510 23:12:48 103 UNWANTED 32XX CILANTRO CV
19F075513 23:13:23 44 NUISANCE 19XX BERKLEY AVE
19F075511 23:14:16 25 PD ACCIDENT CRESCENT AVE & E COLISEUM BLVD
19F075512 23:14:28 23 VANDALISM 32XX BOWSER AVE
19F075514 23:18:23 43 DISTURBANCE 26XX W COLISEUM BLVD
19F075515 23:20:52 42 INTOX PERSON KIMBERLEY RD & BELLE VISTA BLVD
19F075517 23:25:33 1 MEET DEAN DR & ST JOE RD
19F075519 23:25:40 22I JUV INVEST 6XX HAYDEN ST
19F075518 23:26:25 103 UNWANTED 3XX E SUPERIOR ST
19F075520 23:28:21 46 DOMESTIC 40XX AVONDALE DR
19F075521 23:31:33 48,35 45XX SPATZ AVE
19F075524 23:32:48 33,34 BALDWIN DR & E STATE BLVD
19F075522 23:35:01 48,36 77XX NORTH RIVER RD
19F075525 23:35:09 EMS 35XX DEBENEY DR
19F075523 23:36:13 39R STOLEN RECO 33XX CHANCELLOR DR
19F075526 23:40:38 30 TRAFFIC STOP CRESCENT AVE & HAZELWOOD AVE
19F075527 23:42:23 48 SUSPICIOUS 23XX ISLAND CLUB DR
19F075528 23:51:11 103 UNWANTED 21XX EDEN ST
19F075529 23:53:54 44LM 28XX S ANTHONY BLVD
19F075530 23:56:30 108 FOLLOWUP XX E MAIN ST